[[{"header":{"parameterUnit":"m.s-1","parameterCategory":1,"la1":30.2991,"la2":30.254,"lo1":-89.0895,"lo2":-89.0444,"dy":0.0017,"dx":0.0017,"nx":28,"ny":28,"refTime":"2024-12-03T09:00:00:Z","depth":0,"parameterNumber":2,"parameterNumberName":"U-component_of_WINDS"},"data":[0,0,0,0,0,0,0,0,0,0,0,0,0,0,0,0,0,0,0,0,0,0,0,0,0,0,0,0,0,0,0,0,0,0,0,0,0,0,0,0,0,0,0,0,0,0,0,0,0,0,0,0,0,0,0,0,0,0,-2.1159,-2.1159,0,-2.1183,-2.1183,-2.1183,-2.1127,-2.1125,-2.1123,-2.1122,-2.1146,-2.1149,-2.1151,0,0,0,0,0,0,0,0,0,0,0,0,0,-2.1064,-2.1066,-2.1159,-2.1159,-2.116,-2.1183,-2.1183,-2.1183,-2.1127,-2.1125,-2.1123,-2.1121,-2.1146,-2.1148,-2.1151,0,0,0,0,0,0,0,0,0,0,0,0,0,-2.1098,-2.1067,-2.1159,-2.1134,-2.1132,-2.1183,-2.1183,-2.1183,-2.1128,-2.1125,-2.1122,-2.112,-2.1145,-2.1148,-2.1152,-2.1227,0,0,-2.1162,-2.1164,0,0,0,0,0,0,0,0,-2.1096,-2.1102,-2.1138,-2.1136,-2.1134,-2.1149,-2.1159,-2.1198,-2.1128,-2.113,-2.1122,-2.1119,-2.115,-2.1152,-2.1163,-2.1228,-2.1229,-2.1163,-2.1165,-2.1166,-2.1167,0,0,0,0,0,0,0,-2.1094,-2.11,-2.1168,-2.1138,-2.1136,-2.1122,-2.1124,-2.1166,-2.1154,-2.1129,-2.1125,-2.1129,-2.1148,-2.116,-2.1163,-2.123,-2.1163,-2.1166,-2.1168,-2.1169,-2.1356,-2.1359,0,0,0,0,0,0,-2.1095,-2.1099,-2.1168,-2.1169,-2.1108,-2.1126,-2.1128,-2.1147,-2.1154,-2.1152,-2.1131,-2.1126,-2.1155,-2.1159,-2.1164,-2.1251,-2.1166,-2.117,-2.1172,-2.1353,-2.1357,-2.136,0,0,0,0,0,0,-2.1093,-2.1102,-2.1167,-2.1133,-2.114,-2.113,-2.1152,-2.1149,-2.116,-2.1155,-2.1153,-2.1145,-2.1153,-2.1159,-2.1211,-2.1251,-2.1171,-2.1174,-2.135,-2.1354,-2.1358,-2.1428,0,0,0,0,0,0,-2.1091,-2.1101,-2.113,-2.1134,-2.1142,-2.1214,-2.1155,-2.1151,-2.1167,-2.116,-2.1168,-2.1166,-2.1151,-2.1206,-2.1215,-2.1255,-2.1177,-2.1346,-2.1352,-2.1357,-2.1422,-2.1434,-2.1444,0,0,0,0,0,-2.1087,-2.1149,-2.1132,-2.114,-2.1178,-2.1217,-2.1221,-2.1203,-2.117,-2.1199,-2.1195,-2.1166,-2.1246,-2.1212,-2.1221,-2.1263,-2.1344,-2.135,-2.1357,-2.1417,-2.1431,-2.1444,0,0,0,0,0,0,-2.1151,-2.1149,-2.113,-2.1195,-2.1206,-2.1207,-2.1243,-2.1219,-2.124,-2.1234,-2.121,-2.1212,-2.1269,-2.1271,-2.1234,-2.1335,-2.1289,-2.1298,-2.1332,-2.1346,-2.1357,-2.1355,-2.118,0,0,0,0,0,-2.1172,-2.1204,-2.1201,-2.1258,-2.1265,-2.1253,-2.1269,-2.1254,-2.1265,-2.1269,-2.127,-2.1281,-2.1309,-2.1327,-2.1352,-2.1422,-2.1422,-2.1455,-2.1466,-2.1475,-2.1483,-2.1518,-2.1532,-2.1381,-2.1381,-2.1381,0,0,-2.1217,-2.122,-2.1242,-2.1271,-2.1278,-2.1311,-2.1258,-2.1295,-2.1319,-2.1275,-2.1324,-2.1325,-2.1336,-2.1397,-2.1424,-2.1401,-2.1524,-2.1483,-2.1491,-2.1493,-2.1526,-2.154,-2.1553,-2.1385,-2.1385,-2.1384,0,0,-2.1315,-2.1321,-2.1369,-2.1377,-2.1388,-2.1379,-2.1391,-2.1395,-2.1394,-2.1442,-2.141,-2.1438,-2.1486,-2.1495,-2.1506,-2.1606,-2.158,-2.1615,-2.1673,-2.1708,-2.172,-2.173,-2.1765,-2.1778,-2.1623,-2.1623,-2.1623,0,-2.137,-2.1418,-2.1397,-2.1436,-2.1449,-2.1411,-2.1458,-2.1467,-2.1486,-2.1496,-2.147,-2.1528,-2.1533,-2.1595,-2.1619,-2.163,-2.1641,-2.1614,-2.172,-2.173,-2.174,-2.1772,-2.1785,-2.1627,-2.1626,-2.1626,-2.1626,0,-2.1484,-2.1518,-2.1555,-2.1573,-2.1591,-2.1634,-2.1619,-2.164,-2.1622,-2.1616,-2.1666,-2.1671,-2.1695,-2.1709,-2.1693,-2.1768,-2.1753,-2.1724,-2.1677,-2.1758,-2.1789,-2.1801,-2.1633,-2.1631,-2.163,-2.1629,0,0,-2.1623,-2.1628,-2.1642,-2.1649,-2.1658,-2.1684,-2.1725,-2.1749,-2.1766,-2.178,-2.1813,-2.1854,-2.1827,-2.1839,-2.1824,-2.1854,-2.1932,-2.1821,-2.1821,-2.1841,-2.2014,-2.2035,-2.205,-2.1915,-2.1917,-2.1919,-2.2012,0,-2.1719,-2.179,-2.1771,-2.1841,-2.1872,-2.1835,-2.187,-2.1879,-2.1875,-2.1899,-2.1894,-2.1923,-2.1885,-2.1892,-2.1921,-2.1917,-2.1966,-2.191,-2.1945,-2.1946,-2.1942,-2.2066,-2.2089,-2.2177,-2.2024,-2.2026,-2.2027,0,-2.1841,-2.1859,-2.1932,-2.1934,-2.1946,-2.1979,-2.1998,-2.2022,-2.2031,-2.2026,-2.2039,-2.2017,-2.2057,-2.201,-2.2064,-2.2026,-2.2039,-2.2039,-2.2042,-2.2044,-2.1991,-2.207,-2.2205,-2.2217,-2.2046,-2.2045,-2.2043,0,-2.1934,-2.1977,-2.2025,-2.2033,-2.2037,-2.206,-2.2063,-2.2069,-2.2084,-2.2101,-2.211,-2.2132,-2.2144,-2.2161,-2.2145,-2.2112,-2.2201,-2.2153,-2.2197,-2.2197,-2.2217,-2.2216,-2.2354,-2.2227,-2.2227,-2.2226,-2.2226,0,-2.2043,-2.2089,-2.2067,-2.2097,-2.2147,-2.2124,-2.2174,-2.2173,-2.2179,-2.2207,-2.2177,-2.2204,-2.2182,-2.2207,-2.2195,-2.2241,-2.2247,-2.2243,-2.2239,-2.2245,-2.2245,-2.2253,-2.2246,-2.223,-2.2229,-2.2228,-2.2228,0,-2.2156,-2.2143,-2.2193,-2.2192,-2.2193,-2.223,-2.2229,-2.2256,-2.2249,-2.2285,-2.2293,-2.2281,-2.2309,-2.2295,-2.2324,-2.2316,-2.2375,-2.2363,-2.2372,-2.2368,-2.2413,-2.2408,-2.256,-2.2578,-2.244,-2.2442,-2.2443,0,-2.2226,-2.226,-2.2262,-2.2279,-2.2284,-2.2311,-2.2326,-2.2305,-2.2322,-2.2334,-2.2359,-2.2385,-2.2404,-2.245,-2.2444,-2.2466,-2.2454,-2.2506,-2.2457,-2.2462,-2.2454,-2.2451,-2.2454,-2.2515,-2.2517,-2.2518,-2.2519,0,-2.2351,-2.2343,-2.2365,-2.2385,-2.2403,-2.2418,-2.243,-2.2445,-2.2424,-2.2444,-2.2472,-2.2487,-2.2516,-2.2541,-2.256,-2.2562,-2.2538,-2.2535,-2.2546,-2.2552,-2.2555,-2.2553,-2.2398,-2.2531,-2.253,-2.2529,-2.2529,-2.2528,-2.2444,-2.2472,-2.2477,-2.2503,-2.2509,-2.2521,-2.2546,-2.2541,-2.2564,-2.2586,-2.2573,-2.2605,-2.2612,-2.2634,-2.264,-2.2665,-2.2644,-2.266,-2.2664,-2.2669,-2.2674,-2.2552,-2.2668,-2.2668,-2.2667,-2.2667,-2.2667,0,-2.2566,-2.2568,-2.2591,-2.2609,-2.2628,-2.2603,-2.2614,-2.2633,-2.2661,-2.267,-2.2689,-2.272,-2.2744,-2.274,-2.2761,-2.2782,-2.2771,-2.2788,-2.2786,-2.2787,-2.2692,-2.2679,-2.2797,-2.2797,-2.2796,-2.2796,-2.2796,-2.2796,-2.2633,-2.2678,-2.267,-2.2718,-2.2719,-2.275,-2.2759,-2.2769,-2.2776,-2.2812,-2.2831,-2.2828,-2.2831,-2.2852,-2.2873,-2.2871,-2.288,-2.2901,-2.2895,-2.2806,-2.2794,-2.2781,-2.277,-2.2904,-2.2904,-2.2988,-2.2988,-2.2989]},{"header":{"parameterUnit":"m.s-1","parameterCategory":1,"la1":30.2991,"la2":30.254,"lo1":-89.0895,"lo2":-89.0444,"dy":0.0017,"dx":0.0017,"nx":28,"ny":28,"refTime":"2024-12-03T09:00:00:Z","depth":0,"parameterNumber":3,"parameterNumberName":"V-component_of_WINDS"},"data":[0,0,0,0,0,0,0,0,0,0,0,0,0,0,0,0,0,0,0,0,0,0,0,0,0,0,0,0,0,0,0,0,0,0,0,0,0,0,0,0,0,0,0,0,0,0,0,0,0,0,0,0,0,0,0,0,0,0,-3.9469,-3.9469,0,-3.9552,-3.9553,-3.9554,-3.9517,-3.9515,-3.9513,-3.9511,-3.9593,-3.9597,-3.9601,0,0,0,0,0,0,0,0,0,0,0,0,0,-3.9272,-3.9276,-3.9468,-3.9469,-3.9471,-3.9552,-3.9553,-3.9554,-3.9517,-3.9515,-3.9512,-3.951,-3.9592,-3.9597,-3.9602,0,0,0,0,0,0,0,0,0,0,0,0,0,-3.9356,-3.9277,-3.9468,-3.9462,-3.9462,-3.9552,-3.9553,-3.9555,-3.9518,-3.9515,-3.9511,-3.9509,-3.959,-3.9596,-3.9602,-3.9702,0,0,-3.9621,-3.9624,0,0,0,0,0,0,0,0,-3.9352,-3.9364,-3.9462,-3.9462,-3.9463,-3.9521,-3.9514,-3.9604,-3.9518,-3.9496,-3.9511,-3.9507,-3.9571,-3.9579,-3.9601,-3.9706,-3.971,-3.9622,-3.9625,-3.9628,-3.963,0,0,0,0,0,0,0,-3.9346,-3.936,-3.9501,-3.9463,-3.9464,-3.9453,-3.9462,-3.9531,-3.955,-3.9498,-3.9496,-3.9506,-3.9571,-3.9595,-3.9603,-3.9711,-3.9621,-3.9627,-3.9631,-3.9633,-3.9899,-3.9903,0,0,0,0,0,0,-3.9341,-3.9355,-3.9499,-3.9504,-3.9399,-3.9459,-3.9469,-3.9505,-3.9549,-3.9553,-3.9509,-3.9504,-3.9586,-3.9596,-3.9606,-3.9724,-3.9628,-3.9634,-3.9637,-3.9896,-3.99,-3.9904,0,0,0,0,0,0,-3.9337,-3.9354,-3.9495,-3.9429,-3.9446,-3.9466,-3.9507,-3.9509,-3.9533,-3.9557,-3.956,-3.953,-3.9584,-3.9597,-3.9678,-3.9726,-3.9637,-3.9642,-3.9892,-3.9897,-3.9902,-3.9962,0,0,0,0,0,0,-3.9331,-3.9353,-3.9392,-3.943,-3.945,-3.9568,-3.951,-3.9513,-3.9544,-3.9539,-3.9578,-3.9582,-3.9583,-3.9669,-3.9684,-3.9733,-3.9647,-3.9888,-3.9894,-3.99,-3.9956,-3.9969,-3.998,0,0,0,0,0,-3.9324,-3.9405,-3.9394,-3.9412,-3.95,-3.9571,-3.9582,-3.9582,-3.9548,-3.9587,-3.9602,-3.9581,-3.9719,-3.9678,-3.9695,-3.9746,-3.9885,-3.9892,-3.99,-3.9951,-3.9966,-3.998,0,0,0,0,0,0,-3.9371,-3.941,-3.9398,-3.9494,-3.953,-3.9565,-3.9613,-3.9599,-3.9644,-3.9637,-3.9635,-3.9644,-3.9727,-3.9745,-3.9698,-3.9844,-3.9796,-3.9808,-3.9829,-3.9844,-3.9856,-3.9849,-3.9652,0,0,0,0,0,-3.9393,-3.9449,-3.9479,-3.9561,-3.958,-3.9594,-3.9625,-3.9622,-3.9658,-3.9672,-3.9694,-3.9728,-3.9779,-3.9813,-3.9862,-3.9959,-3.9966,-4.0002,-4.0014,-4.0024,-4.0033,-4.0084,-4.01,-3.9929,-3.9929,-3.9928,0,0,-3.9438,-3.9466,-3.9502,-3.9571,-3.9598,-3.9655,-3.9606,-3.9668,-3.971,-3.9681,-3.9759,-3.9776,-3.9814,-3.9904,-3.9944,-3.9921,-4.0082,-4.0033,-4.0041,-4.0045,-4.0093,-4.011,-4.0124,-3.9934,-3.9933,-3.9932,0,0,-3.9549,-3.9577,-3.9647,-3.9675,-3.9717,-3.9725,-3.9742,-3.9779,-3.979,-3.9868,-3.9848,-3.9896,-3.9984,-4.0012,-4.0038,-4.0158,-4.0139,-4.0174,-4.0235,-4.0285,-4.0298,-4.031,-4.0351,-4.0366,-4.0183,-4.0183,-4.0184,0,-3.9599,-3.9684,-3.9685,-3.9748,-3.9778,-3.9757,-3.9827,-3.9853,-3.9909,-3.9929,-3.9903,-4.0013,-4.0037,-4.0131,-4.0161,-4.0183,-4.0201,-4.0169,-4.0296,-4.0308,-4.0319,-4.0358,-4.0374,-4.0187,-4.0187,-4.0186,-4.0186,0,-3.9743,-3.9803,-3.9854,-3.9909,-3.9945,-4.0012,-4.002,-4.0057,-4.0051,-4.0062,-4.014,-4.0169,-4.0222,-4.0245,-4.0239,-4.0338,-4.0322,-4.0296,-4.0248,-4.034,-4.0376,-4.0391,-4.0193,-4.0191,-4.019,-4.0189,0,0,-3.9886,-3.9939,-3.9958,-3.9981,-4.0026,-4.0071,-4.0135,-4.0188,-4.0219,-4.0257,-4.031,-4.0385,-4.0361,-4.039,-4.0388,-4.0431,-4.0522,-4.04,-4.0401,-4.042,-4.0631,-4.0649,-4.0667,-4.0511,-4.0514,-4.0516,-4.0627,0,-3.9998,-4.0113,-4.0114,-4.0219,-4.0272,-4.0252,-4.0308,-4.034,-4.0352,-4.0398,-4.041,-4.0463,-4.0428,-4.0446,-4.0488,-4.0503,-4.0564,-4.0495,-4.0558,-4.056,-4.0548,-4.0686,-4.0706,-4.0809,-4.0642,-4.0644,-4.0646,0,-4.0145,-4.0188,-4.0299,-4.0334,-4.0356,-4.0407,-4.0454,-4.0499,-4.0535,-4.054,-4.0573,-4.0563,-4.0627,-4.0578,-4.0665,-4.0618,-4.0643,-4.0654,-4.0658,-4.0663,-4.0608,-4.0693,-4.0843,-4.0858,-4.0669,-4.0667,-4.0665,0,-4.0235,-4.0322,-4.0398,-4.0419,-4.0463,-4.0498,-4.0518,-4.055,-4.0582,-4.0623,-4.0643,-4.0691,-4.0717,-4.0753,-4.0756,-4.0721,-4.0844,-4.0795,-4.0848,-4.0848,-4.0874,-4.0872,-4.1028,-4.0893,-4.0893,-4.0893,-4.0893,0,-4.036,-4.0427,-4.0439,-4.0486,-4.0561,-4.0562,-4.0635,-4.0651,-4.068,-4.0729,-4.0714,-4.0759,-4.0761,-4.0808,-4.081,-4.0881,-4.0893,-4.0898,-4.0897,-4.0899,-4.0898,-4.0914,-4.0907,-4.0897,-4.0896,-4.0895,-4.0895,0,-4.0473,-4.0484,-4.0566,-4.06,-4.061,-4.0664,-4.0692,-4.0736,-4.0746,-4.0808,-4.0822,-4.0838,-4.0891,-4.0898,-4.0961,-4.0963,-4.1047,-4.104,-4.1035,-4.1034,-4.1086,-4.108,-4.1257,-4.128,-4.1132,-4.1133,-4.1134,0,-4.0551,-4.0603,-4.0643,-4.0674,-4.0696,-4.0748,-4.0779,-4.0782,-4.0815,-4.0859,-4.0897,-4.0949,-4.0991,-4.1077,-4.1093,-4.114,-4.1133,-4.1192,-4.114,-4.1139,-4.1132,-4.1128,-4.1132,-4.1201,-4.1203,-4.1204,-4.1205,0,-4.0688,-4.069,-4.0737,-4.0786,-4.0825,-4.0863,-4.0899,-4.0925,-4.0932,-4.097,-4.1025,-4.1057,-4.1121,-4.1172,-4.1219,-4.1237,-4.1222,-4.1222,-4.1236,-4.1237,-4.1231,-4.1233,-4.1061,-4.1217,-4.1216,-4.1215,-4.1215,-4.1214,-4.0785,-4.0829,-4.0864,-4.0916,-4.0943,-4.0977,-4.102,-4.1035,-4.1082,-4.1134,-4.1132,-4.1192,-4.1225,-4.1286,-4.1308,-4.1353,-4.1334,-4.1355,-4.136,-4.1365,-4.137,-4.1226,-4.1362,-4.1362,-4.1361,-4.1361,-4.1361,0,-4.0919,-4.094,-4.0989,-4.1039,-4.108,-4.1064,-4.1102,-4.1137,-4.119,-4.1222,-4.1264,-4.1326,-4.1376,-4.1396,-4.1444,-4.1477,-4.1471,-4.1489,-4.1486,-4.149,-4.1385,-4.1367,-4.1493,-4.1493,-4.1493,-4.1493,-4.1493,-4.1493,-4.0994,-4.1067,-4.1074,-4.116,-4.1181,-4.124,-4.1263,-4.1293,-4.1319,-4.139,-4.1431,-4.1444,-4.1471,-4.1521,-4.1565,-4.1569,-4.1587,-4.1608,-4.1609,-4.1511,-4.1497,-4.1485,-4.1468,-4.1612,-4.1612,-4.171,-4.171,-4.1711]}]]